• In Portugal
  • List of Countries
  • For 7 days
  • Water Temperature
  • Satellite Maps
  • Weather Map
  • Weather Widgets
  • user-avatar
    Login

    Hourly Weather Jalapa

    Today, 17 October, Tuesday

    Time Temperature Precipitation Wind Pressure Humidity
    00:00 +17°C° 0 mm 2 mps 642 mmHg 94%
    01:00 +17°C° 0 mm 2 mps 642 mmHg 94%
    02:00 +17°C° 0 mm 2 mps 642 mmHg 94%
    03:00 +17°C° 0 mm 2 mps 641 mmHg 94%
    04:00 +17°C° 0 mm 2 mps 641 mmHg 94%
    05:00 +17°C° 0 mm 2 mps 641 mmHg 94%
    06:00 +17°C° 0 mm 2 mps 642 mmHg 94%
    07:00 +19°C° 0 mm 2 mps 642 mmHg 88%
    08:00 +20°C° 0 mm 2 mps 643 mmHg 81%
    09:00 +23°C° 0 mm 2 mps 644 mmHg 75%
    10:00 +24°C° 0 mm 2 mps 644 mmHg 71%
    11:00 +25°C° 0 mm 2 mps 644 mmHg 66%
    12:00 +26°C° 0 mm 2 mps 644 mmHg 62%
    13:00 +26°C° 0.3 mm 2 mps 643 mmHg 63%
    14:00 +26°C° 0.3 mm 2 mps 643 mmHg 65%
    15:00 +26°C° 0.3 mm 2 mps 642 mmHg 66%
    16:00 +24°C° 0.4 mm 2 mps 642 mmHg 74%
    17:00 +21°C° 0.4 mm 2 mps 641 mmHg 81%
    18:00 +20°C° 0.4 mm 1 mps 641 mmHg 88%
    19:00 +20°C° 0.2 mm 1 mps 641 mmHg 90%
    20:00 +18°C° 0.2 mm 2 mps 642 mmHg 92%
    21:00 +18°C° 0.2 mm 2 mps 642 mmHg 94%
    22:00 +17°C° 0 mm 2 mps 642 mmHg 95%
    23:00 +17°C° 0 mm 2 mps 642 mmHg 95%

    Tomorrow, 18 October, Wednesday

    Time Temperature Precipitation Wind Pressure Humidity
    00:00 +17°C° 0 mm 2 mps 642 mmHg 95%
    01:00 +17°C° 0 mm 2 mps 641 mmHg 94%
    02:00 +17°C° 0 mm 2 mps 641 mmHg 94%
    03:00 +17°C° 0 mm 2 mps 641 mmHg 94%
    04:00 +17°C° 0 mm 2 mps 641 mmHg 94%
    05:00 +17°C° 0 mm 2 mps 641 mmHg 93%
    06:00 +17°C° 0 mm 2 mps 641 mmHg 93%
    07:00 +18°C° 0 mm 2 mps 642 mmHg 88%
    08:00 +20°C° 0 mm 2 mps 643 mmHg 82%
    09:00 +21°C° 0 mm 2 mps 644 mmHg 77%
    10:00 +23°C° 0 mm 2 mps 644 mmHg 72%
    11:00 +25°C° 0 mm 2 mps 644 mmHg 68%
    12:00 +26°C° 0 mm 2 mps 644 mmHg 64%
    13:00 +26°C° 0.1 mm 2 mps 643 mmHg 64%
    14:00 +26°C° 0.1 mm 2 mps 643 mmHg 65%
    15:00 +26°C° 0.1 mm 2 mps 642 mmHg 66%
    16:00 +24°C° 0.2 mm 2 mps 642 mmHg 73%
    17:00 +21°C° 0.2 mm 2 mps 641 mmHg 80%
    18:00 +20°C° 0.2 mm 1 mps 641 mmHg 87%
    19:00 +20°C° 0.1 mm 1 mps 642 mmHg 89%
    20:00 +19°C° 0.1 mm 1 mps 642 mmHg 91%
    21:00 +18°C° 0.1 mm 2 mps 642 mmHg 93%
    22:00 +18°C° 0 mm 2 mps 642 mmHg 94%
    23:00 +18°C° 0 mm 2 mps 642 mmHg 94%

    Day after tomorrow, 19 October, Thursday

    Time Temperature Precipitation Wind Pressure Humidity
    00:00 +17°C° 0 mm 2 mps 642 mmHg 95%
    01:00 +17°C° 0 mm 2 mps 641 mmHg 95%
    02:00 +17°C° 0 mm 2 mps 641 mmHg 94%
    03:00 +17°C° 0 mm 2 mps 641 mmHg 94%
    04:00 +17°C° 0 mm 2 mps 641 mmHg 94%
    05:00 +17°C° 0 mm 2 mps 641 mmHg 94%
    06:00 +17°C° 0 mm 2 mps 641 mmHg 94%
    07:00 +18°C° 0 mm 2 mps 642 mmHg 87%
    08:00 +20°C° 0 mm 2 mps 643 mmHg 80%
    09:00 +23°C° 0 mm 2 mps 644 mmHg 73%
    10:00 +24°C° 0 mm 2 mps 644 mmHg 68%
    11:00 +25°C° 0 mm 2 mps 644 mmHg 63%
    12:00 +26°C° 0 mm 2 mps 644 mmHg 58%
    13:00 +26°C° 0.1 mm 2 mps 643 mmHg 60%
    14:00 +26°C° 0.1 mm 2 mps 642 mmHg 63%
    15:00 +26°C° 0.1 mm 2 mps 641 mmHg 65%
    16:00 +24°C° 0.4 mm 2 mps 641 mmHg 72%
    17:00 +22°C° 0.4 mm 1 mps 641 mmHg 79%
    18:00 +20°C° 0.4 mm 1 mps 641 mmHg 86%
    19:00 +20°C° 0.4 mm 1 mps 641 mmHg 88%
    20:00 +19°C° 0.4 mm 1 mps 642 mmHg 90%
    21:00 +19°C° 0.4 mm 1 mps 642 mmHg 92%
    22:00 +19°C° 0.4 mm 1 mps 642 mmHg 93%
    23:00 +19°C° 0.4 mm 1 mps 642 mmHg 93%

    20 October, Friday

    Time Temperature Precipitation Wind Pressure Humidity
    00:00 +19°C° 0.4 mm 1 mps 642 mmHg 94%
    01:00 +18°C° 0.1 mm 1 mps 641 mmHg 94%
    02:00 +18°C° 0.1 mm 1 mps 641 mmHg 94%
    03:00 +18°C° 0.1 mm 1 mps 640 mmHg 94%
    04:00 +18°C° 0.1 mm 1 mps 641 mmHg 93%
    05:00 +17°C° 0.1 mm 2 mps 641 mmHg 93%
    06:00 +17°C° 0.1 mm 2 mps 641 mmHg 93%
    07:00 +19°C° 0 mm 2 mps 642 mmHg 87%
    08:00 +20°C° 0 mm 2 mps 643 mmHg 81%
    09:00 +23°C° 0 mm 2 mps 643 mmHg 75%
    10:00 +24°C° 0.1 mm 2 mps 643 mmHg 70%
    11:00 +25°C° 0.1 mm 2 mps 643 mmHg 65%
    12:00 +26°C° 0.1 mm 2 mps 643 mmHg 60%
    13:00 +26°C° 0.6 mm 2 mps 643 mmHg 63%
    14:00 +26°C° 0.6 mm 2 mps 642 mmHg 65%
    15:00 +26°C° 0.6 mm 2 mps 641 mmHg 68%
    16:00 +24°C° 0.6 mm 2 mps 641 mmHg 75%
    17:00 +22°C° 0.6 mm 1 mps 641 mmHg 82%
    18:00 +20°C° 0.6 mm 1 mps 640 mmHg 88%
    19:00 +20°C° 0.7 mm 1 mps 641 mmHg 90%
    20:00 +19°C° 0.7 mm 1 mps 641 mmHg 92%
    21:00 +19°C° 0.7 mm 1 mps 642 mmHg 94%
    22:00 +18°C° 0.1 mm 1 mps 642 mmHg 94%
    23:00 +18°C° 0.1 mm 1 mps 641 mmHg 94%

    21 October, Saturday

    Time Temperature Precipitation Wind Pressure Humidity
    00:00 +18°C° 0.1 mm 1 mps 641 mmHg 95%
    01:00 +18°C° 0 mm 1 mps 641 mmHg 95%
    02:00 +18°C° 0 mm 1 mps 640 mmHg 94%
    03:00 +18°C° 0 mm 1 mps 640 mmHg 94%
    04:00 +18°C° 0.1 mm 1 mps 640 mmHg 94%
    05:00 +17°C° 0.1 mm 2 mps 641 mmHg 94%
    06:00 +17°C° 0.1 mm 2 mps 641 mmHg 94%
    07:00 +18°C° 0 mm 2 mps 642 mmHg 87%
    08:00 +20°C° 0 mm 2 mps 643 mmHg 80%
    09:00 +23°C° 0 mm 2 mps 643 mmHg 73%
    10:00 +25°C° 0 mm 2 mps 643 mmHg 67%
    11:00 +26°C° 0 mm 2 mps 643 mmHg 60%
    12:00 +28°C° 0 mm 2 mps 643 mmHg 54%
    13:00 +27°C° 0.7 mm 2 mps 643 mmHg 59%
    14:00 +27°C° 0.7 mm 2 mps 642 mmHg 64%
    15:00 +26°C° 0.7 mm 2 mps 641 mmHg 69%
    16:00 +24°C° 1.2 mm 2 mps 641 mmHg 76%
    17:00 +22°C° 1.2 mm 1 mps 641 mmHg 83%
    18:00 +20°C° 1.2 mm 1 mps 641 mmHg 90%
    19:00 +20°C° 0.8 mm 1 mps 641 mmHg 91%
    20:00 +19°C° 0.8 mm 1 mps 642 mmHg 93%
    21:00 +19°C° 0.8 mm 1 mps 642 mmHg 94%
    22:00 +19°C° 0.6 mm 1 mps 642 mmHg 95%
    23:00 +19°C° 0.6 mm 1 mps 641 mmHg 95%

    22 October, Sunday

    Time Temperature Precipitation Wind Pressure Humidity
    00:00 +18°C° 0.6 mm 1 mps 641 mmHg 95%
    01:00 +18°C° 0.2 mm 1 mps 641 mmHg 95%
    02:00 +18°C° 0.2 mm 1 mps 641 mmHg 95%
    03:00 +18°C° 0.2 mm 1 mps 640 mmHg 94%
    04:00 +18°C° 0.2 mm 1 mps 641 mmHg 94%
    05:00 +18°C° 0.2 mm 1 mps 641 mmHg 94%
    06:00 +18°C° 0.2 mm 1 mps 641 mmHg 94%
    07:00 +19°C° 0.1 mm 1 mps 642 mmHg 89%
    08:00 +21°C° 0.1 mm 1 mps 643 mmHg 83%
    09:00 +22°C° 0.1 mm 1 mps 644 mmHg 78%
    10:00 +24°C° 0.3 mm 2 mps 643 mmHg 75%
    11:00 +25°C° 0.3 mm 2 mps 643 mmHg 71%
    12:00 +26°C° 0.3 mm 2 mps 643 mmHg 68%
    13:00 +25°C° 1.1 mm 2 mps 643 mmHg 71%
    14:00 +25°C° 1.1 mm 2 mps 642 mmHg 74%
    15:00 +25°C° 1.1 mm 2 mps 641 mmHg 77%
    16:00 +23°C° 1.3 mm 1 mps 641 mmHg 82%
    17:00 +22°C° 1.3 mm 1 mps 641 mmHg 87%
    18:00 +20°C° 1.3 mm 1 mps 641 mmHg 91%
    19:00 +20°C° 0.7 mm 1 mps 641 mmHg 93%
    20:00 +19°C° 0.7 mm 1 mps 642 mmHg 94%
    21:00 +19°C° 0.7 mm 1 mps 642 mmHg 95%
    22:00 +19°C° 0.3 mm 1 mps 642 mmHg 95%
    23:00 +18°C° 0.3 mm 1 mps 641 mmHg 95%
    Show more